This is the latest recevied weather packets stored in our database for station/object DK0KTL-4. If no packets are shown the sender has not sent any weather packets the latest 10 day(s).
| Time | Temp. | Humidity | Pressure | Rain* | Wind** | Luminosity | Snow |
|---|---|---|---|---|---|---|---|
| 1787849083 | 28.89° C | 53% | 1013.1 hPa | 0 mm | - | - | - |
| 1787848783 | 28.89° C | 49% | 1013 hPa | 0 mm | - | - | - |
| 1787848182 | 29.44° C | 50% | 1012.8 hPa | 0 mm | - | - | - |
| 1787847882 | 30° C | 50% | 1013 hPa | 0 mm | - | - | - |
| 1787847582 | 29.44° C | 49% | 1013.1 hPa | 0 mm | - | - | - |
| 1787847282 | 29.44° C | 48% | 1013.3 hPa | 0 mm | - | - | - |
| 1787846981 | 30° C | 49% | 1013.3 hPa | 0 mm | - | - | - |
| 1787846681 | 30° C | 51% | 1013.3 hPa | 0 mm | - | - | - |
| 1787846381 | 30° C | 48% | 1013.3 hPa | 0 mm | - | - | - |
| 1787846080 | 30.56° C | 50% | 1013.2 hPa | 0 mm | - | - | - |
| 1787845780 | 30.56° C | 51% | 1013.3 hPa | 0 mm | - | - | - |
| 1787845480 | 30.56° C | 54% | 1013.4 hPa | 0 mm | - | - | - |
| 1787845179 | 30.56° C | 56% | 1013.3 hPa | 0 mm | - | - | - |
| 1787844879 | 30° C | 60% | 1013.3 hPa | 0 mm | - | - | - |
| 1787844579 | 29.44° C | 61% | 1013.3 hPa | 0 mm | - | - | - |
| 1787844279 | 29.44° C | 56% | 1013.3 hPa | 0 mm | - | - | - |
| 1787843978 | 29.44° C | 55% | 1013.3 hPa | 0 mm | - | - | - |
| 1787843678 | 29.44° C | 54% | 1013.3 hPa | 0 mm | - | - | - |
| 1787843378 | 30° C | 53% | 1013.3 hPa | 0 mm | - | - | - |
| 1787843077 | 30° C | 52% | 1013.4 hPa | 0 mm | - | - | - |
| 1787842777 | 30.56° C | 48% | 1013.4 hPa | 0 mm | - | - | - |
| 1787842477 | 30.56° C | 47% | 1013.5 hPa | 0 mm | - | - | - |
| 1787842176 | 31.11° C | 49% | 1013.4 hPa | 0 mm | - | - | - |
| 1787841576 | 31.11° C | 44% | 1013.4 hPa | 0 mm | - | - | - |
| 1787841276 | 31.11° C | 48% | 1013.5 hPa | 0 mm | - | - | - |
* Rain latest hour (hover to see other rain measurements)
** Current wind speed in m/s (hover to see current wind gust speed)